Find Starlink 37641

NORAD ID: 69445 Int'l Des: 2026-127 Owner: SPXS Country: US Constellation: starlink operational
LEOCIRCULAR

現在のビュー

3D地球を読み込み中...

About Starlink 37641

Starlink 37641 (NORAD 69445) is a starlink constellation satellite launched Jun 8, 2026 by SPXS of US. It operates in LEO, CIRCULAR orbit with a mass of 575.00 kg.

次回通過

Passes for default location (London). Set your location on the main map for personalized predictions.

高度履歴

Loading altitude history...

軌道要素

1 69445U 26127C 26206.91772905 .00057992 00000-0 10414-2 0 9996
2 69445 53.1589 71.0614 0001221 86.2048 273.9101 15.49353041 7492
Epoch: Jul 25, 2026 • Age: 13 hours

現在のステータス

高度 423.7 km
遠地点 / 近地点 N/A
速度 7.66 km/s
衛星直下点 -18.03°S, 149.07°E
打ち上げ日 Jun 8, 2026
運用期間 0.1 years
タイプ internet

技術仕様

分類 Payload
質量 575.00 kg
乾燥質量 530.00 kg
総質量 575.00 kg
長さ 0.30 m
直径 4.10 m
スパン 29.00 m
形状 Box + pan
製造者 SPXS
バスタイプ Starlink V2MO
フェーズステータス In Orbit
所有者/国 SPXS/US

Most Searched